Weather History for PAKT - December, 2012

Change the Weather History Date:

Sunday, December 16, 2012

  Actual Average Record
Temperature  
Mean Temperature 31 °F -  
Max Temperature 34 °F 40 °F 52 °F (1953)
Min Temperature 27 °F 31 °F 3 °F (1964)
Degree Days  
Heating Degree Days 34    
Moisture  
Dew Point 31 °F    
Average Humidity 95    
Maximum Humidity 100    
Minimum Humidity 92    
Precipitation  
Precipitation 0.18 in - - ()
Sea Level Pressure  
Sea Level Pressure 29.27 in    
Wind  
Wind Speed 4 mph (SSE)    
Max Wind Speed 13 mph    
Max Gust Speed 17 mph    
Visibility 7 miles    
Events Snow    
Averages and records for this station are not official NWS values.
T = Trace of Precipitation, MM = Missing Value Source: NWS Daily Summary

Daily Weather History Graph

Daily Weather History Graph

Search for Another Location

Airport or City:

Trip Planner

Search our weather history database for the weather conditions in past years. The results will help you decide how hot, cold, wet, or windy it might be!

Date:

Astronomy

Dec. 16, 2012 Rise Set
Actual Time 8:09 AM AKST 3:16 PM AKST
Civil Twilight 7:23 AM AKST 4:02 PM AKST
Nautical Twilight 6:35 AM AKST 4:50 PM AKST
Astronomical Twilight 5:50 AM AKST 5:35 PM AKST
Moon 10:12 AM AKST (12/16) 8:17 PM AKST (12/16)
Length of Visible Light 8h 39m
Length of Day
7h 06m
Waxing Crescent, 17% of the Moon is Illuminated
Dec 16
Waxing Crescent
Dec 19
First Quarter
Dec 28
Full
Jan 4
Last Quarter
Jan 11
New

Hourly Weather History & Observations

Time (AKST) Temp. Windchill Dew Point Humidity Pressure Visibility Wind Dir Wind Speed Gust Speed Precip Events Conditions
12:53 AM 34.0 °F 31.0 °F 33.1 °F 96% 29.30 in 10.0 mi SSE 3.5 mph - 0.01 in   Overcast
1:48 AM 33.8 °F - 32.0 °F 93% 29.29 in 2.0 mi Calm Calm - 0.02 in Snow Light Snow
1:51 AM 33.8 °F - 32.0 °F 93% 29.30 in 3.0 mi Calm Calm - 0.02 in Snow Light Snow
1:53 AM 33.1 °F - 32.0 °F 96% 29.30 in 4.0 mi Calm Calm - 0.02 in Snow Light Snow
2:05 AM 33.8 °F 28.6 °F 32.0 °F 93% 29.30 in 10.0 mi SE 5.8 mph - 0.00 in   Overcast
3:00 AM 33.8 °F 29.6 °F 33.8 °F 100% 29.29 in 9.0 mi SSE 4.6 mph - N/A   Overcast
3:27 AM 33.8 °F 27.7 °F 33.8 °F 100% 29.29 in 5.0 mi SE 6.9 mph - 0.01 in   Overcast
3:53 AM 34.0 °F 31.0 °F 33.1 °F 96% 29.29 in 10.0 mi South 3.5 mph - 0.01 in   Overcast
4:06 AM 33.8 °F 29.6 °F 33.8 °F 100% 29.28 in 10.0 mi SSE 4.6 mph - 0.00 in   Overcast
4:14 AM 33.8 °F 30.8 °F 33.8 °F 100% 29.28 in 10.0 mi South 3.5 mph - 0.00 in Snow Light Snow
4:22 AM 33.8 °F 29.6 °F 33.8 °F 100% 29.28 in 5.0 mi South 4.6 mph - 0.00 in Snow Light Snow
4:32 AM 33.8 °F 30.8 °F 33.8 °F 100% 29.28 in 2.5 mi SSE 3.5 mph - 0.01 in Snow Light Snow
4:53 AM 33.1 °F 28.7 °F 32.0 °F 96% 29.29 in 2.5 mi SSE 4.6 mph - 0.03 in Snow Light Snow
5:01 AM 33.8 °F 28.6 °F 32.0 °F 93% 29.28 in 4.0 mi SSE 5.8 mph - 0.01 in Snow Light Snow
5:12 AM 33.8 °F 27.7 °F 32.0 °F 93% 29.28 in 4.0 mi SSE 6.9 mph - 0.01 in Snow Light Snow
5:53 AM 33.1 °F 26.9 °F 32.0 °F 96% 29.28 in 3.0 mi SSE 6.9 mph - 0.02 in Snow Light Snow
6:03 AM 33.8 °F 29.6 °F 32.0 °F 93% 29.27 in 1.8 mi SSE 4.6 mph - 0.01 in Snow Light Snow
6:11 AM 33.8 °F 27.0 °F 32.0 °F 93% 29.27 in 3.0 mi SSE 8.1 mph - 0.03 in Snow Light Snow
6:53 AM 33.1 °F 28.7 °F 32.0 °F 96% 29.27 in 9.0 mi South 4.6 mph - 0.05 in   Overcast
7:53 AM 34.0 °F - 33.1 °F 96% 29.27 in 10.0 mi Calm Calm - 0.00 in   Overcast
8:53 AM 34.0 °F 29.8 °F 33.1 °F 96% 29.29 in 10.0 mi South 4.6 mph - 0.01 in   Overcast
9:53 AM 34.0 °F 28.8 °F 32.0 °F 92% 29.29 in 10.0 mi SSE 5.8 mph - N/A   Mostly Cloudy
10:53 AM 34.0 °F 28.8 °F 32.0 °F 92% 29.29 in 10.0 mi SE 5.8 mph - N/A   Mostly Cloudy
11:53 AM 34.0 °F 26.6 °F 32.0 °F 92% 29.29 in 10.0 mi ESE 9.2 mph - N/A   Overcast
12:53 PM 33.1 °F 30.0 °F 32.0 °F 96% 29.28 in 10.0 mi South 3.5 mph - N/A   Mostly Cloudy
1:35 PM 33.8 °F 28.6 °F 32.0 °F 93% 29.28 in 1.0 mi SSE 5.8 mph - 0.02 in Snow Light Snow
1:38 PM 33.8 °F 24.8 °F 32.0 °F 93% 29.28 in 1.0 mi ESE 12.7 mph 17.3 mph 0.03 in Snow Light Snow
1:53 PM 33.1 °F 25.5 °F 32.0 °F 96% 29.29 in 1.0 mi SE 9.2 mph - 0.03 in Snow Light Snow
1:55 PM 33.8 °F 27.0 °F 32.0 °F 93% 29.28 in 3.0 mi SE 8.1 mph - 0.00 in Snow Light Snow
2:25 PM 33.8 °F 27.7 °F 32.0 °F 93% 29.28 in 10.0 mi SE 6.9 mph - 0.00 in   Overcast
2:53 PM 33.1 °F 30.0 °F 32.0 °F 96% 29.28 in 10.0 mi South 3.5 mph - 0.00 in   Mostly Cloudy
3:53 PM 32.0 °F - 30.0 °F 92% 29.27 in 10.0 mi Calm Calm - N/A   Scattered Clouds
4:53 PM 32.0 °F 28.7 °F 30.0 °F 92% 29.26 in 10.0 mi SE 3.5 mph - N/A   Scattered Clouds
5:53 PM 30.0 °F - 28.9 °F 96% 29.26 in 10.0 mi Calm Calm - N/A   Mostly Cloudy
6:53 PM 30.9 °F - 30.0 °F 96% 29.25 in 6.0 mi Calm Calm - 0.00 in Snow Light Snow
6:57 PM 32.0 °F - 30.2 °F 93% 29.24 in 6.0 mi Calm Calm - 0.00 in Snow Light Snow
7:19 PM 30.2 °F - 28.4 °F 93% 29.24 in 6.0 mi Calm Calm - 0.00 in   Mostly Cloudy
7:53 PM 30.9 °F - 28.9 °F 92% 29.25 in 6.0 mi Calm Calm - 0.00 in   Mostly Cloudy
8:53 PM 30.9 °F - 28.9 °F 92% 29.24 in 10.0 mi Calm Calm - N/A   Mostly Cloudy
9:53 PM 30.0 °F - 28.0 °F 92% 29.23 in 10.0 mi Calm Calm - N/A   Mostly Cloudy
10:51 PM 28.4 °F - 26.6 °F 93% 29.22 in 10.0 mi Calm Calm - N/A   Scattered Clouds
10:53 PM 28.9 °F - 27.0 °F 92% 29.23 in 10.0 mi Calm Calm - N/A   Partly Cloudy
11:53 PM 27.0 °F - 25.0 °F 92% 29.23 in 10.0 mi Calm Calm - N/A   Mostly Cloudy